sat.trackr.live / text

‹ back to catalog

STARLINK-32921

NORAD 62920 · 2025-027P

PAYLOAD ACTIVE UNKNOWN

§ Identity

Operator
Country
US
Launch date
2025-02-08
Launch site
AFETR
Launch vehicle
Mass (kg)
RCS (m²)

Purposes: comms

External: N2YO · Heavens-Above · Gunter

§ Orbital elements

Epoch: 2026-09-21T22:01:23.968992Z

Period
94.03 min
Inclination
43.0021°
Eccentricity
0.0005659
Mean motion
15.31433391 rev/d
Perigee alt
467.7 km
Apogee alt
475.4 km
Semi-major
6,849.7 km
B*
1.3181e-3
RAAN
99.7476°
Arg perigee
260.4255°
Mean anomaly
99.5959°
Rev number
9,156

§ Raw data

STARLINK-329211 62920U 25027P   26264.91763853  .00040820  00000+0  13181-2 0  99962 62920  43.0021  99.7476 0005659 260.4255  99.5959 15.31433391 91562

JSON: /api/v1/satellites/62920 · /tle

For live sub-satellite position, see the globe view (requires WebGL).

§ Visibility from observer

Set your observer location to see the next 7 days of passes ≥ 10°. The values pass through the URL so the page stays shareable.

No JS? Fill the form by hand. The geolocation button needs JavaScript.